Grand Rapids, MN

2:57 AM CDT on August 26, 2019 (GMT -0500)
Grand Rapids-Itasca County-Newstrom Field

Weather History for KGPZ - July, 2019

Change the Weather History Date:

Thursday, July 18, 2019

  Actual Average Record
Temperature  
Mean Temperature 72 °F -  
Max Temperature 82 °F 82 °F 95 °F (1932)
Min Temperature 62 °F 56 °F 41 °F (1925)
Cooling Degree Days 7    
Growing Degree Days 22 (Base 50)    
Moisture  
Dew Point 65 °F    
Average Humidity 86    
Maximum Humidity 100    
Minimum Humidity 52    
Precipitation  
Precipitation 0.00 in - - ()
Sea Level Pressure  
Sea Level Pressure 29.68 in    
Wind  
Wind Speed 4 mph (SSW)    
Max Wind Speed 10 mph    
Max Gust Speed 18 mph    
Visibility 6 miles    
Events Fog , Rain    
Averages and records for this station are not official NWS values.
T = Trace of Precipitation, MM = Missing Value Source: NWS Daily Summary

Daily Weather History Graph

Daily Weather History Graph

Search for Another Location

Airport or City:

Astronomy

Jul. 18, 2019 Rise Set
Actual Time 5:36 AM CDT 9:03 PM CDT
Civil Twilight 4:58 AM CDT 9:41 PM CDT
Nautical Twilight 4:08 AM CDT 10:31 PM CDT
Astronomical Twilight 3:01 AM CDT 11:36 PM CDT
Moon 10:24 PM CDT (7/18) 7:08 AM CDT (7/18)
Length of Visible Light 16h 43m
Length of Day
15h 27m
Full, 97% of the Moon is Illuminated
Jul 18
Full
Jul 24
Last Quarter
Jul 31
New
Aug 7
First Quarter
Aug 15
Full

Hourly Weather History & Observations

Time (CDT) Temp. Heat Index Dew Point Humidity Pressure Visibility Wind Dir Wind Speed Gust Speed Precip Events Conditions
12:56 AM 72.0 °F - 69.1 °F 91% 29.72 in 10.0 mi SSW 4.6 mph - N/A   Scattered Clouds
1:56 AM 71.1 °F - 68.0 °F 90% 29.72 in 10.0 mi SW 3.5 mph - N/A   Scattered Clouds
2:56 AM 69.1 °F - 66.9 °F 93% 29.69 in 10.0 mi South 3.5 mph - N/A   Partly Cloudy
3:30 AM 66.2 °F - 66.2 °F 100% 29.70 in 1.5 mi Calm Calm - N/A   Clear
3:41 AM 64.4 °F - 64.4 °F 100% 29.70 in 3.0 mi Calm Calm - N/A   Clear
3:56 AM 64.9 °F - 64.9 °F 100% 29.69 in 1.2 mi Calm Calm - N/A   Clear
4:02 AM 66.2 °F - 66.2 °F 100% 29.69 in 5.0 mi Calm Calm - N/A   Clear
4:09 AM 66.2 °F - 64.4 °F 94% 29.70 in 1.5 mi SSE 4.6 mph - N/A   Clear
4:12 AM 66.2 °F - 64.4 °F 94% 29.70 in 0.8 mi South 4.6 mph - N/A   Clear
4:26 AM 66.2 °F - 66.2 °F 100% 29.70 in 1.5 mi SSE 4.6 mph - N/A   Clear
4:28 AM 66.2 °F - 66.2 °F 100% 29.70 in 4.0 mi SSE 3.5 mph - N/A   Clear
4:46 AM 64.4 °F - 64.4 °F 100% 29.70 in 1.8 mi Calm Calm - N/A   Clear
4:50 AM 64.4 °F - 64.4 °F 100% 29.70 in 0.5 mi Calm Calm - N/A Fog Fog
4:52 AM 64.4 °F - 62.6 °F 94% 29.70 in 0.2 mi Calm Calm - N/A Fog Fog
4:56 AM 63.0 °F - 63.0 °F 100% 29.69 in 0.2 mi Calm Calm - N/A Fog Fog
5:16 AM 62.6 °F - 62.6 °F 100% 29.70 in 0.8 mi SSE 4.6 mph - N/A   Mist
5:27 AM 66.2 °F - 66.2 °F 100% 29.70 in 1.2 mi South 3.5 mph - N/A   Partly Cloudy
5:36 AM 66.2 °F - 66.2 °F 100% 29.71 in 3.0 mi South 4.6 mph - N/A   Scattered Clouds
5:41 AM 66.2 °F - 66.2 °F 100% 29.71 in 2.5 mi South 5.8 mph - N/A   Mostly Cloudy
5:46 AM 66.2 °F - 66.2 °F 100% 29.72 in 1.0 mi SSE 5.8 mph - N/A   Mostly Cloudy
5:49 AM 66.2 °F - 66.2 °F 100% 29.72 in 0.5 mi SSE 4.6 mph - N/A Fog Fog
5:56 AM 66.9 °F - 66.9 °F 100% 29.70 in 0.2 mi SSE 4.6 mph - N/A Fog Fog
6:15 AM 66.2 °F - 66.2 °F 100% 29.71 in 0.8 mi SSE 4.6 mph - N/A   Overcast
6:17 AM 66.2 °F - 66.2 °F 100% 29.71 in 1.2 mi SSE 4.6 mph - N/A   Mostly Cloudy
6:20 AM 66.2 °F - 66.2 °F 100% 29.71 in 4.0 mi South 4.6 mph - N/A   Mostly Cloudy
6:37 AM 66.2 °F - 66.2 °F 100% 29.72 in 8.0 mi South 5.8 mph - N/A   Partly Cloudy
6:56 AM 66.9 °F - 66.9 °F 100% 29.70 in 10.0 mi South 4.6 mph - N/A   Scattered Clouds
7:56 AM 68.0 °F - 68.0 °F 100% 29.68 in 10.0 mi South 4.6 mph - 0.00 in Rain Light Rain
8:56 AM 71.1 °F - 68.0 °F 90% 29.67 in 10.0 mi SSW 6.9 mph - 0.00 in   Overcast
9:56 AM 73.0 °F - 66.9 °F 81% 29.66 in 10.0 mi WNW 8.1 mph - 0.00 in   Overcast
10:56 AM 75.9 °F - 66.9 °F 74% 29.66 in 10.0 mi SSW 6.9 mph - N/A   Scattered Clouds
11:56 AM 79.0 °F - 66.9 °F 66% 29.65 in 10.0 mi WSW 9.2 mph - N/A   Clear
12:56 PM 80.1 °F 82.3 °F 66.9 °F 64% 29.65 in 10.0 mi SW 9.2 mph - N/A   Partly Cloudy
1:56 PM 82.0 °F 83.8 °F 64.9 °F 56% 29.63 in 10.0 mi WSW 10.4 mph 16.1 mph N/A   Partly Cloudy
2:56 PM 81.0 °F 82.5 °F 64.0 °F 56% 29.63 in 10.0 mi Variable 6.9 mph - N/A   Clear
3:56 PM 81.0 °F 81.9 °F 62.1 °F 52% 29.63 in 10.0 mi WSW 10.4 mph 18.4 mph N/A   Partly Cloudy
4:56 PM 81.0 °F 82.2 °F 63.0 °F 54% 29.62 in 10.0 mi SW 10.4 mph 16.1 mph N/A   Clear
5:56 PM 82.0 °F 83.8 °F 64.9 °F 56% 29.62 in 10.0 mi SW 8.1 mph - N/A   Clear
6:56 PM 81.0 °F 83.0 °F 66.0 °F 60% 29.62 in 10.0 mi SW 6.9 mph - N/A   Clear
7:56 PM 78.1 °F - 64.0 °F 62% 29.63 in 10.0 mi SW 6.9 mph - N/A   Clear
8:56 PM 77.0 °F - 62.1 °F 60% 29.64 in 10.0 mi SW 5.8 mph - N/A   Clear
9:56 PM 75.0 °F - 60.1 °F 60% 29.65 in 10.0 mi SSW 5.8 mph - N/A   Clear
10:56 PM 75.0 °F - 60.1 °F 60% 29.66 in 10.0 mi SW 4.6 mph - N/A   Mostly Cloudy
11:56 PM 73.9 °F - 60.1 °F 62% 29.67 in 10.0 mi West 4.6 mph - N/A   Scattered Clouds